Leadville, CO

9:44 AM MST on December 03, 2016 (GMT -0700)
Lake County

Weather History for KLXV - March, 2013

Change the Weather History Date:

Monday, March 4, 2013

  Actual Average Record
Temperature  
Mean Temperature 14 °F -  
Max Temperature 30 °F 35 °F 54 °F (1987)
Min Temperature -3 °F 8 °F -128 °F (1997)
Degree Days  
Heating Degree Days 51 44  
Month to date heating degree days 167 176  
Since 1 July heating degree days 7709 7886  
Cooling Degree Days 0 0  
Month to date cooling degree days 0 0  
Year to date cooling degree days 0 0  
Moisture  
Dew Point 15 °F    
Average Humidity 71    
Maximum Humidity 92    
Minimum Humidity 50    
Precipitation  
Precipitation 0.27 in 0.03 in 0.30 in (1989)
Month to date precipitation 0.39 0.11  
Year to date precipitation 2.01 1.43  
Sea Level Pressure  
Sea Level Pressure 29.83 in    
Wind  
Wind Speed 10 mph (NNW)    
Max Wind Speed 31 mph    
Max Gust Speed 43 mph    
Visibility 3 miles    
Events Fog , Snow    
T = Trace of Precipitation, MM = Missing Value Source: NWS Daily Summary

Daily Weather History Graph

Daily Weather History Graph

Search for Another Location

Airport or City:

Trip Planner

Search our weather history database for the weather conditions in past years. The results will help you decide how hot, cold, wet, or windy it might be!

Date:

Astronomy

Mar. 04, 2013 Rise Set
Actual Time 6:33 AM MST 6:01 PM MST
Civil Twilight 6:06 AM MST 6:28 PM MST
Nautical Twilight 5:35 AM MST 6:59 PM MST
Astronomical Twilight 5:04 AM MST 7:30 PM MST
Moon 12:43 AM MST (3/4) 10:47 AM MST (3/4)
Length of Visible Light 12h 21m
Length of Day
11h 28m
Waning Gibbous, 51% of the Moon is Illuminated
Mar 4
Waning Gibbous
Mar 4
Last Quarter
Mar 11
New
Mar 19
First Quarter
Mar 27
Full

Hourly Weather History & Observations

Time (MST) Temp. Windchill Dew Point Humidity Pressure Visibility Wind Dir Wind Speed Gust Speed Precip Events Conditions
12:25 AM 26.6 °F - 24.8 °F 93% 29.82 in 1.5 mi Calm Calm - 0.01 in Snow Light Snow
12:41 AM 26.6 °F - 24.8 °F 93% 29.82 in 1.5 mi Calm Calm - 0.02 in Snow Light Snow
12:53 AM 26.1 °F - 24.1 °F 92% 29.63 in 1.0 mi Calm Calm - 0.02 in Snow Light Snow
1:53 AM 26.1 °F - 23.0 °F 88% 29.61 in 1.2 mi Calm Calm - 0.04 in Snow Light Snow
2:00 AM 24.8 °F 16.1 °F 23.0 °F 93% 29.82 in 1.8 mi West 8.1 mph - 0.00 in Snow Light Snow
2:13 AM 24.8 °F 20.5 °F 21.2 °F 86% 29.82 in 1.8 mi NW 3.5 mph - 0.00 in Snow Light Snow
2:30 AM 24.8 °F - 23.0 °F 93% 29.81 in 1.0 mi Calm Calm - 0.01 in Snow Light Snow
2:53 AM 24.1 °F 16.0 °F 21.9 °F 91% 29.63 in 1.8 mi NNW 6.9 mph - 0.01 in Snow Light Snow
3:01 AM 24.8 °F 19.1 °F 21.2 °F 86% 29.81 in 2.5 mi Variable 4.6 mph - 0.00 in Snow Light Snow
3:12 AM 24.8 °F 20.5 °F 21.2 °F 86% 29.81 in 1.2 mi North 3.5 mph - 0.01 in Snow Light Snow
3:30 AM 24.8 °F 20.5 °F 21.2 °F 86% 29.80 in 1.0 mi North 3.5 mph - 0.01 in Snow Light Snow
3:53 AM 24.1 °F - 21.9 °F 91% 29.63 in 0.8 mi Calm Calm - 0.03 in Snow Light Snow
4:08 AM 24.8 °F - 21.2 °F 86% 29.79 in 0.8 mi Calm Calm - 0.01 in Snow Light Snow
4:20 AM 24.8 °F - 23.0 °F 93% 29.80 in 1.0 mi Calm Calm - 0.01 in Snow Light Snow
4:34 AM 24.8 °F - 21.2 °F 86% 29.79 in 2.0 mi Calm Calm - 0.02 in Snow Light Snow
4:44 AM 24.8 °F - 21.2 °F 86% 29.79 in 3.0 mi Calm Calm - 0.02 in Snow Light Snow
4:53 AM 24.1 °F 18.2 °F 21.9 °F 91% 29.64 in 5.0 mi East 4.6 mph - 0.02 in Snow Light Snow
5:18 AM 24.8 °F - 21.2 °F 86% 29.80 in 1.8 mi Calm Calm - 0.00 in Snow Light Snow
5:36 AM 24.8 °F - 21.2 °F 86% 29.79 in 3.0 mi Calm Calm - 0.00 in Snow Light Snow
5:53 AM 25.0 °F 18.1 °F 21.0 °F 85% 29.65 in 4.0 mi NNE 5.8 mph - 0.00 in Snow Light Snow
6:38 AM 24.8 °F 15.3 °F 21.2 °F 86% 29.79 in 1.5 mi NW 9.2 mph 16.1 mph 0.00 in Snow Light Snow
6:45 AM 24.8 °F 15.3 °F 21.2 °F 86% 29.80 in 0.5 mi NW 9.2 mph 16.1 mph 0.00 in Fog , Snow Snow
6:53 AM 24.1 °F 14.4 °F 21.0 °F 88% 29.66 in 0.5 mi NW 9.2 mph - 0.01 in Fog , Snow Snow
6:59 AM 23.0 °F 15.8 °F 21.2 °F 93% 29.80 in 0.2 mi NNW 5.8 mph - 0.00 in Fog , Snow Heavy Snow
7:30 AM 24.8 °F 17.9 °F 21.2 °F 86% 29.81 in 0.8 mi NNW 5.8 mph - 0.04 in Snow Light Snow
7:38 AM 24.8 °F 20.5 °F 21.2 °F 86% 29.81 in 1.0 mi North 3.5 mph - 0.04 in Snow Light Snow
7:46 AM 24.8 °F 17.9 °F 19.4 °F 80% 29.81 in 2.0 mi North 5.8 mph - 0.04 in Snow Light Snow
7:53 AM 23.0 °F 15.8 °F 19.9 °F 88% 29.68 in 3.0 mi Variable 5.8 mph - 0.04 in Snow Light Snow
8:06 AM 24.8 °F - 19.4 °F 80% 29.81 in 7.0 mi Calm Calm - 0.00 in   Overcast
8:25 AM 24.8 °F 20.5 °F 19.4 °F 80% 29.81 in 1.8 mi Variable 3.5 mph - 0.00 in Snow Light Snow
8:44 AM 24.8 °F 16.9 °F 19.4 °F 80% 29.80 in 3.0 mi Variable 6.9 mph - 0.00 in Snow Light Snow
8:53 AM 25.0 °F 12.2 °F 18.0 °F 75% 29.66 in 7.0 mi WNW 16.1 mph 26.5 mph 0.00 in   Mostly Cloudy
9:14 AM 26.6 °F 14.7 °F 17.6 °F 69% 29.80 in 7.0 mi NW 15.0 mph 27.6 mph N/A   Partly Cloudy
9:49 AM 26.6 °F 14.7 °F 17.6 °F 69% 29.80 in 10.0 mi NW 15.0 mph - N/A   Mostly Cloudy
9:53 AM 26.1 °F 13.1 °F 18.0 °F 71% 29.66 in 6.0 mi NW 17.3 mph 23.0 mph 0.00 in Snow Light Snow
9:59 AM 24.8 °F 11.1 °F 19.4 °F 80% 29.80 in 1.5 mi NW 18.4 mph 25.3 mph 0.00 in Snow Light Snow
10:13 AM 26.6 °F 13.8 °F 17.6 °F 69% 29.80 in 3.0 mi NW 17.3 mph 24.2 mph 0.00 in Snow Light Snow
10:31 AM 26.6 °F 13.4 °F 19.4 °F 74% 29.80 in 1.8 mi WNW 18.4 mph 26.5 mph 0.00 in Snow Light Snow
10:40 AM 24.8 °F 15.3 °F 19.4 °F 80% 29.81 in 0.5 mi NW 9.2 mph 26.5 mph 0.00 in Snow Snow
10:46 AM 26.6 °F 16.2 °F 19.4 °F 74% 29.80 in 2.0 mi WNW 11.5 mph 18.4 mph 0.00 in Snow Light Snow
10:53 AM 26.1 °F 12.7 °F 16.0 °F 66% 29.66 in 5.0 mi WNW 18.4 mph 27.6 mph 0.00 in   Mostly Cloudy
11:53 AM 28.0 °F 17.0 °F 12.9 °F 53% 29.64 in 10.0 mi West 13.8 mph - 0.00 in   Mostly Cloudy
12:53 PM 28.0 °F 14.6 °F 15.1 °F 58% 29.61 in 8.0 mi WNW 20.7 mph 28.8 mph 0.00 in   Overcast
1:30 PM 24.8 °F 15.3 °F 17.6 °F 74% 29.76 in 1.8 mi West 9.2 mph 23.0 mph 0.00 in Snow Light Snow
1:37 PM 26.6 °F 16.2 °F 17.6 °F 69% 29.76 in 1.2 mi WNW 11.5 mph - 0.00 in Snow Light Snow
1:53 PM 23.0 °F 8.7 °F 19.9 °F 88% 29.66 in 0.2 mi NW 18.4 mph 27.6 mph 0.01 in Fog , Snow Heavy Snow
2:00 PM 21.2 °F 3.5 °F 17.6 °F 86% 29.81 in 0.2 mi NW 27.6 mph 42.6 mph 0.00 in Fog , Snow Heavy Snow
2:11 PM 17.6 °F 1.3 °F 14.0 °F 86% 29.81 in 0.2 mi North 19.6 mph 32.2 mph 0.01 in Fog , Snow Heavy Snow
2:46 PM 15.8 °F 0.9 °F 10.4 °F 79% 29.84 in 0.5 mi North 15.0 mph 25.3 mph 0.04 in Snow Snow
2:53 PM 16.0 °F -0.4 °F 10.0 °F 77% 29.79 in 1.8 mi North 18.4 mph 26.5 mph 0.05 in Snow Light Snow
3:14 PM 15.8 °F 2.1 °F 8.6 °F 73% 29.87 in 1.8 mi North 12.7 mph - 0.02 in Snow Light Snow
3:33 PM 15.8 °F 1.4 °F 8.6 °F 73% 29.88 in 1.0 mi North 13.8 mph 20.7 mph 0.02 in Snow Light Snow
3:41 PM 15.8 °F -0.2 °F 8.6 °F 73% 29.89 in 0.8 mi North 17.3 mph - 0.02 in Snow Light Snow
3:53 PM 14.0 °F -2.5 °F 9.0 °F 80% 29.87 in 0.5 mi North 17.3 mph 21.9 mph 0.02 in Snow Snow
4:22 PM 14.0 °F -2.0 °F 8.6 °F 79% 29.93 in 1.0 mi North 16.1 mph - 0.00 in Snow Light Snow
4:45 PM 14.0 °F -0.2 °F 8.6 °F 79% 29.95 in 0.8 mi North 12.7 mph - 0.01 in Snow Light Snow
4:53 PM 12.9 °F 2.6 °F 8.1 °F 81% 29.92 in 0.5 mi North 6.9 mph - 0.01 in Snow Snow
4:57 PM 12.2 °F 2.9 °F 8.6 °F 85% 29.96 in 0.2 mi North 5.8 mph - 0.00 in Fog , Snow Snow
5:10 PM 12.2 °F 6.1 °F 8.6 °F 85% 29.97 in 0.5 mi North 3.5 mph - 0.01 in Fog , Snow Snow
5:46 PM 12.2 °F 1.7 °F 8.6 °F 85% 30.00 in 1.0 mi North 6.9 mph - 0.02 in Snow Light Snow
5:51 PM 12.2 °F 2.9 °F 8.6 °F 85% 30.00 in 2.5 mi North 5.8 mph - 0.02 in Snow Light Snow
5:53 PM 12.9 °F 3.8 °F 7.0 °F 77% 29.98 in 4.0 mi North 5.8 mph - 0.02 in Snow Light Snow
6:53 PM 9.0 °F 0.6 °F 3.0 °F 77% 30.04 in 10.0 mi ESE 4.6 mph - 0.00 in   Overcast
7:25 PM 8.6 °F -1.3 °F 1.4 °F 73% 30.05 in 10.0 mi NNE 5.8 mph - N/A   Overcast
7:53 PM 8.1 °F -3.2 °F -0.0 °F 70% 30.09 in 10.0 mi NNE 6.9 mph - N/A   Overcast
8:03 PM 8.6 °F -2.6 °F -0.4 °F 67% 30.08 in 10.0 mi North 6.9 mph - N/A   Overcast
8:53 PM 3.0 °F -11.5 °F -2.0 °F 80% 30.15 in 10.0 mi NE 9.2 mph - N/A   Scattered Clouds
9:53 PM 1.0 °F -14.0 °F -5.1 °F 75% 30.17 in 10.0 mi NE 9.2 mph - N/A   Partly Cloudy
10:53 PM 1.0 °F -14.9 °F -6.0 °F 72% 30.17 in 10.0 mi NE 10.4 mph - N/A   Clear
11:53 PM -2.9 °F -13.3 °F -8.0 °F 79% 30.18 in 10.0 mi NNE 4.6 mph - N/A   Clear